User: anonymous   Login
Location: Bowman Observatory
(41.0326°N, 73.6210°W)
Time: 21:48:50
(UTC-04:00)
Language:

Cosmos 2297 - Orbit

View from above orbital plane
View from above orbital plane
View from above satellite
View from above satellite

Ground track
Ground track

The orbit data is extracted from the following two-line orbital elements,

1 23404U 94077A   14297.10938959  .00000325  00000-0  19786-3 0  9003
2 23404 071.0145 157.3058 0015230 184.7441 343.2433 14.13405199 27426
Epoch (UTC): 24 October 2014 02:37:31
Eccentricity: 0.0015230
inclination: 71.0145°
perigee height: 837 km
apogee height: 859 km
right ascension of ascending node: 157.3058°
argument of perigee: 184.7441°
revolutions per day: 14.13405199
mean anomaly at epoch: 343.2433°
orbit number at epoch: 2742

The dashed part of the orbit path shows where the satellite is in the earth's shadow,  

DLR